Content
SEND FEEDBACK

Daily
Averages
Monthly
Summary
United States of America

ST. LOUIS - SAINT LOUIS UNIVERSITY, MISSOURI


Home > North America > United States > Missouri
Elevation: 580 feet     Latitude: 38 38N     Longitude: 090 14W

WEATHER
 
SELECT A DAY
Number of Records: 186,481;   Date Range: 1/1/95 - 9/19/14
 
SHARE

PRINT THIS DATA

[ ← Previous Day ]
WEATHER ALMANAC - APRIL 22, 2013
[ Next Day → ]
[ °C ]   °F
Weather ElementAverageHighLow
Temperature58.7 °F71.1 °F (4:53 pm)39.9 °F (5:53 am)
Dewpoint40.6 °F46 °F (9:53 pm)35.1 °F (5:53 am)
Humidity53.5 %83 % (5:53 am)33 % (3:53 pm)
Barometer30.13 in30.27 in (1:53 am)30.00 in (6:53 pm)
Wind Speed7 mph16.1 mph (4:53 pm)
Wind Gust25.3 mph (3:53 pm)
Weather ElementAverage
Visibility10 mi
Wind DirectionESE (129.1 °)

Weather ElementTotal
Precipitation---
Heating Degree Days9.5 (Base 65)
Growing Degree Days5.5 (Base 50)
Averaged from 23 records on April 22, 2013
WEATHER CONDITIONS BREAKOUT
WIND DIRECTION BREAKOUT
Weather ElementAverageHighLow
Temperature58.7 °F71.1 °F (4:53 pm)39.9 °F (5:53 am)
Dewpoint40.6 °F46 °F (9:53 pm)35.1 °F (5:53 am)
Humidity53.5 %83 % (5:53 am)33 % (3:53 pm)
Barometer30.13 in30.27 in (1:53 am)30.00 in (6:53 pm)
Wind Speed7 mph16.1 mph (4:53 pm)
Wind Gust25.3 mph (3:53 pm)
Weather ElementAverage
Visibility10 mi
Wind DirectionESE (129.1 °)

Weather ElementTotal
Precipitation---
Heating Degree Days9.5 (Base 65)
Growing Degree Days5.5 (Base 50)
Averaged from 23 records on April 22, 2013
WEATHER CONDITIONS BREAKOUT
WIND DIRECTION BREAKOUT
WEATHER BY HOUR - APRIL 22, 2013
[ °C ]   °F
Local TimeTemperatureDewpointHumidityBarometerVisibilityWind DirectionWind SpeedGust SpeedPrecipitationEventsConditions
1:53 AM48.9 °F36.0 °F61 %30.27 in10.0 miSSE (150°)4.6 mphClear
2:53 AM46.9 °F37.9 °F71 %30.25 in10.0 miESE (120°)3.5 mphClear
3:53 AM46.0 °F36.0 °F68 %30.24 in10.0 miSE (140°)4.6 mphClear
4:53 AM42.1 °F36.0 °F79 %30.24 in10.0 miCalmClear
5:53 AM39.9 °F35.1 °F83 %30.23 in10.0 miCalmClear
6:53 AM41.0 °F36.0 °F82 %30.23 in10.0 miCalmClear
7:53 AM48.9 °F37.0 °F64 %30.23 in10.0 miSSE (150°)4.6 mphClear
8:53 AM54.0 °F37.0 °F53 %30.23 in10.0 miSSE (160°)6.9 mphClear
9:53 AM59.0 °F39.0 °F48 %30.21 in10.0 miSSE (160°)8.1 mphClear
10:53 AM62.1 °F42.1 °F48 %30.20 in10.0 miSSE (150°)6.9 mphClear
11:53 AM66.0 °F43.0 °F43 %30.19 in10.0 miSSE (150°)9.2 mphClear
12:53 PM69.1 °F42.1 °F38 %30.15 in10.0 miSSE (160°)8.1 mphClear
1:53 PM69.1 °F42.1 °F38 %30.12 in10.0 miESE (120°)10.4 mphClear
2:53 PM70.0 °F41.0 °F35 %30.09 in10.0 miSSE (150°)12.7 mph24.2 mphClear
3:53 PM70.0 °F39.9 °F33 %30.05 in10.0 miSSE (150°)15.0 mph25.3 mphClear
4:53 PM71.1 °F42.1 °F35 %30.01 in10.0 miSSE (150°)16.1 mph24.2 mphClear
5:53 PM69.1 °F41.0 °F36 %30.01 in10.0 miSSE (160°)11.5 mph19.6 mphClear
6:53 PM66.0 °F43.0 °F43 %30.00 in10.0 miSSE (150°)8.1 mph17.3 mphClear
7:53 PM64.0 °F44.1 °F48 %30.00 in10.0 miSSE (150°)8.1 mphClear
8:53 PM63.0 °F45.0 °F52 %30.02 in10.0 miSSE (150°)6.9 mphClear
9:53 PM62.1 °F46.0 °F56 %30.02 in10.0 miSSE (150°)5.8 mphMostly Cloudy
10:53 PM61.0 °F46.0 °F58 %30.02 in10.0 miSSE (150°)4.6 mphScattered Clouds
11:53 PM61.0 °F46.0 °F58 %30.03 in10.0 miSSE (150°)4.6 mphMostly Cloudy
Hourly data recorded from KCPS, located miles away from St. Louis - Saint Louis University, Missouri







STORIES FROM OUR PARTNERS